カタログに戻る

STARLINK-32440

運用中通信VLEO
NORAD 61714·PAYLOAD·🇺🇸 United States

打ち上げ Oct 30, 2024 から Cape Canaveral Space Force Station

Loading…

次のパス (今後24時間)

TLE

最新Source: CelesTrak SupGP

元期: Sep 14, 2026, 22:16 UTC

1 61714C 24196H   26257.92826389  .00039260  00000+0  11612-2 0  2579
2 61714  53.1569 299.4298 0001308 109.1583 157.0750 15.34337223    11

AllMySatでSTARLINK-32440をリアルタイム追跡

Download on the App Store